Location: Newark
(25.1500°N, 87.0200°E)
Time: 00:29:55
(UTC+00:00)

Envisat - Visible Passes

Search period start: 10 December 2019 00:00
Search period end: 20 December 2019 00:00
Orbit: 764 x 766 km, 98.1° (Epoch: 09 December)

Date Brightness Start Highest point End Pass type
(mag) Time Alt. Az. Time Alt. Az. Time Alt. Az.
10 Dec 3.3 12:31:25 10° S 12:36:28 71° WSW 12:41:31 10° NNW visible
11 Dec 3.3 11:55:01 10° SE 11:59:48 44° ENE 12:04:36 10° N visible
11 Dec 6.0 13:36:26 10° SW 13:38:53 13° W 13:41:20 10° WNW visible
12 Dec 5.2 00:12:43 10° NE 00:17:12 31° E 00:21:39 10° SSE visible
12 Dec 4.6 12:57:22 10° SSW 13:01:58 35° W 13:06:36 10° NNW visible
12 Dec 6.3 23:38:29 10° ENE 23:40:16 12° E 23:42:03 10° ESE visible
13 Dec 2.9 12:20:08 10° SSE 12:25:12 87° ENE 12:30:17 10° N visible
14 Dec 3.6 11:44:04 10° SE 11:48:35 34° ENE 11:53:06 10° N visible
14 Dec 5.7 13:24:08 10° SW 13:27:33 18° W 13:30:59 10° NW visible
15 Dec 5.6 00:01:51 10° NE 00:05:53 24° E 00:09:54 10° SSE visible
15 Dec 4.0 12:45:49 10° S 12:50:41 47° W 12:55:33 10° NNW visible
16 Dec 2.9 12:08:56 10° SSE 12:13:57 66° ENE 12:18:58 10° N visible
17 Dec 4.3 00:26:34 10° NNE 00:31:26 46° E 00:36:17 10° S visible
17 Dec 5.3 13:12:11 10° SSW 13:16:13 24° W 13:20:17 10° NW visible
17 Dec 5.9 23:51:10 10° NE 23:54:33 18° E 23:57:57 10° SE visible
18 Dec 3.5 12:34:23 10° S 12:39:23 63° W 12:44:25 10° NNW visible
19 Dec 3.2 11:57:50 10° SSE 12:02:42 49° ENE 12:07:35 10° N visible
19 Dec 6.1 13:39:58 10° WSW 13:41:50 12° W 13:43:43 10° WNW visible
